User: anonymous   Login
Location: Columbia
(38.9520°N, 92.3340°W)
Time: 22:31:29
(UTC-05:00)
Language:

Iridium 22 - Orbit

View from above orbital plane
View from above orbital plane
View from above satellite
View from above satellite

Ground track
Ground track

The orbit data is extracted from the following two-line orbital elements,

1 24907U 97043E   16211.44256196 -.00000042  00000-0 -21887-4 0  9991
2 24907  86.3947  30.9952 0002082  84.2247 275.9186 14.34216596991567
Epoch (UTC): 29 July 2016 10:37:17
Eccentricity: 0.0002082
inclination: 86.3947°
perigee height: 776 km
apogee height: 779 km
right ascension of ascending node: 30.9952°
argument of perigee: 84.2247°
revolutions per day: 14.34216596
mean anomaly at epoch: 275.9186°
orbit number at epoch: 99156

The dashed part of the orbit path shows where the satellite is in the earth's shadow,  

DLR